Date String (YYYY-MM-DD hh:mm:ss) UTC,Instrument flags,Ambient pressure (hPa),Sample flow (lpm),Bypass flow (lpm),Sample temperature (°C),Ambient temperature (°C),ASC tube jacket temperature (°C),LED temperature (°C),Box temperature (°C),Sample RH (%),Span deviation,Mass concentration (μg/m³),Mass concentration (μg/m³),Mass concentration (μg/m³)
DateTimeUTC,F1_M11,P_M11,Q1_M11,Q2_M11,T1_M11,T2_M11,T3_M11,T4_M11,T5_M11,U1_M11,ZSPAN_M11,X0_M11,X2_M11,X1_M11
2021-11-26 01:00:00,,0832.3,5.00,0.00,28.1,27.3,00.0,37.2,29.9,06.3,0000.0,0001.75,0000.95,0000.63
2021-11-26 01:01:00,,0832.3,5.00,0.00,28.1,27.3,00.0,37.2,29.8,06.3,0000.0,0001.71,0000.94,0000.63
2021-11-26 01:02:00,,0832.3,5.00,0.00,28.1,27.3,00.0,37.2,29.9,06.3,0000.0,0001.69,0000.94,0000.63
2021-11-26 01:03:00,,0832.3,4.99,0.00,28.1,27.3,00.0,37.1,29.8,06.3,0000.0,0001.68,0000.94,0000.64
2021-11-26 01:04:00,,0832.3,5.01,0.00,28.1,27.3,00.0,37.1,29.8,06.3,0000.0,0001.71,0000.95,0000.64
2021-11-26 01:05:00,,0832.4,5.00,0.00,28.1,27.3,00.0,37.1,29.8,06.2,0000.0,0001.68,0000.93,0000.64
2021-11-26 01:06:00,,0832.4,4.99,0.00,28.1,27.3,00.0,37.1,29.8,06.2,0000.0,0001.61,0000.90,0000.64
2021-11-26 01:07:00,,0832.4,4.99,0.00,28.1,27.3,00.0,37.1,29.8,06.3,0000.0,0001.61,0000.89,0000.63
2021-11-26 01:08:00,,0832.4,5.01,0.00,28.1,27.3,00.0,37.1,29.9,06.2,0000.0,0001.58,0000.86,0000.62
2021-11-26 01:09:00,,0832.3,5.00,0.00,28.1,27.3,00.0,37.1,29.9,06.3,0000.0,0001.58,0000.86,0000.61
2021-11-26 01:10:00,,0832.3,5.00,0.00,28.1,27.3,00.0,37.1,29.9,06.3,0000.0,0001.56,0000.88,0000.62
2021-11-26 01:11:00,,0832.3,5.01,0.00,28.1,27.3,00.0,37.1,29.9,06.2,0000.0,0001.50,0000.87,0000.61
2021-11-26 01:12:00,,0832.3,4.99,0.00,28.1,27.3,00.0,37.1,29.9,06.2,0000.0,0001.42,0000.87,0000.61
2021-11-26 01:13:00,,0832.3,5.00,0.00,28.1,27.3,00.0,37.1,29.9,06.2,0000.0,0001.42,0000.86,0000.61
2021-11-26 01:14:00,,0832.3,4.99,0.00,28.2,27.3,00.0,37.1,29.9,06.2,0000.0,0001.45,0000.86,0000.60
2021-11-26 01:15:00,,0832.3,5.00,0.00,28.2,27.3,00.0,37.1,29.9,06.2,0000.0,0001.34,0000.82,0000.60
2021-11-26 01:16:00,,0832.3,5.01,0.00,28.1,27.3,00.0,37.1,29.9,06.3,0000.0,0001.34,0000.82,0000.59
2021-11-26 01:17:00,,0832.3,5.01,0.00,28.1,27.3,00.0,37.1,29.9,06.2,0000.0,0001.39,0000.81,0000.59
2021-11-26 01:18:00,,0832.3,4.99,0.00,28.1,27.2,00.0,37.1,29.8,06.1,0000.0,0001.48,0000.83,0000.59
2021-11-26 01:19:00,,0832.2,5.00,0.00,28.1,27.2,00.0,37.1,29.9,06.1,0000.0,0001.48,0000.83,0000.59
2021-11-26 01:20:00,,0832.2,5.01,0.00,28.1,27.3,00.0,37.1,29.8,06.1,0000.0,0001.45,0000.82,0000.60
2021-11-26 01:21:00,,0832.2,5.01,0.00,28.1,27.2,00.0,37.1,29.9,06.1,0000.0,0001.34,0000.79,0000.59
2021-11-26 01:22:00,,0832.2,5.01,0.00,28.1,27.2,00.0,37.1,29.8,06.0,0000.0,0001.42,0000.82,0000.61
2021-11-26 01:23:00,,0832.2,4.99,0.00,28.1,27.2,00.0,37.1,29.8,06.0,0000.0,0001.46,0000.84,0000.62
2021-11-26 01:24:00,,0832.2,4.99,0.00,28.1,27.2,00.0,37.1,29.8,06.1,0000.0,0001.42,0000.83,0000.63
2021-11-26 01:25:00,,0832.1,5.01,0.00,28.0,27.1,00.0,37.1,29.8,06.2,0000.0,0001.35,0000.82,0000.64
2021-11-26 01:26:00,,0832.1,4.99,0.00,28.0,27.1,00.0,37.1,29.7,06.1,0000.0,0001.40,0000.85,0000.64
2021-11-26 01:27:00,,0832.1,5.00,0.00,28.0,27.1,00.0,37.0,29.7,06.1,0000.0,0001.36,0000.84,0000.65
2021-11-26 01:28:00,,0832.1,5.01,0.00,28.0,27.1,00.0,37.0,29.7,06.1,0000.0,0001.36,0000.86,0000.65
2021-11-26 01:29:00,,0832.1,4.99,0.00,27.9,27.0,00.0,37.0,29.7,06.1,0000.0,0001.29,0000.86,0000.67
2021-11-26 01:30:00,,0832.1,5.00,0.00,27.9,27.0,00.0,37.0,29.7,06.2,0000.0,0001.30,0000.86,0000.66
2021-11-26 01:31:00,,0832.2,4.99,0.00,27.9,27.0,00.0,37.0,29.6,06.1,0000.0,0001.33,0000.87,0000.66
2021-11-26 01:32:00,,0832.2,5.00,0.00,27.9,27.0,00.0,37.0,29.6,06.1,0000.0,0001.32,0000.87,0000.67
2021-11-26 01:33:00,,0832.2,5.01,0.00,27.8,27.0,00.0,37.0,29.5,06.3,0000.0,0001.26,0000.83,0000.66
2021-11-26 01:34:00,,0832.1,4.99,0.00,27.8,26.9,00.0,37.0,29.5,06.4,0000.0,0001.31,0000.84,0000.65
2021-11-26 01:35:00,,0832.2,5.02,0.00,27.8,26.9,00.0,36.9,29.5,06.4,0000.0,0001.43,0000.88,0000.65
2021-11-26 01:36:00,,0832.2,5.01,0.00,27.8,26.9,00.0,36.9,29.5,06.3,0000.0,0001.57,0000.93,0000.65
2021-11-26 01:37:00,,0832.2,4.99,0.00,27.8,26.9,00.0,36.9,29.4,06.3,0000.0,0001.97,0000.95,0000.64
2021-11-26 01:38:00,,0832.2,5.01,0.00,27.7,26.8,00.0,36.9,29.4,06.3,0000.0,0002.40,0000.97,0000.64
2021-11-26 01:39:00,,0832.2,4.99,0.00,27.7,26.8,00.0,36.9,29.3,06.3,0000.0,0002.35,0000.96,0000.63
2021-11-26 01:40:00,,0832.1,5.01,0.00,27.6,26.8,00.0,36.8,29.3,06.3,0000.0,0002.46,0001.00,0000.62
2021-11-26 01:41:00,,0832.1,4.99,0.00,27.6,26.8,00.0,36.8,29.3,06.3,0000.0,0002.61,0001.05,0000.63
2021-11-26 01:42:00,,0832.1,5.01,0.00,27.6,26.8,00.0,36.8,29.3,06.3,0000.0,0002.59,0001.04,0000.63
2021-11-26 01:43:00,,0832.1,5.00,0.00,27.6,26.8,00.0,36.8,29.3,06.3,0000.0,0002.63,0001.05,0000.63
2021-11-26 01:44:00,,0832.2,4.99,0.00,27.6,26.8,00.0,36.8,29.3,06.3,0000.0,0002.64,0001.06,0000.62
2021-11-26 01:45:00,,0832.3,5.00,0.00,27.6,26.8,00.0,36.8,29.4,06.3,0000.0,0002.69,0001.07,0000.63
2021-11-26 01:46:00,,0832.3,5.01,0.00,27.6,26.8,00.0,36.8,29.4,06.3,0000.0,0002.67,0001.07,0000.63
2021-11-26 01:47:00,,0832.3,4.99,0.00,27.6,26.7,00.0,36.7,29.3,06.3,0000.0,0002.56,0001.03,0000.64
2021-11-26 01:48:00,,0832.3,5.00,0.00,27.6,26.7,00.0,36.7,29.3,06.3,0000.0,0002.33,0001.02,0000.63
2021-11-26 01:49:00,,0832.3,5.00,0.00,27.6,26.7,00.0,36.7,29.3,06.3,0000.0,0002.02,0001.04,0000.63
2021-11-26 01:50:00,,0832.3,5.00,0.00,27.6,26.7,00.0,36.7,29.3,06.3,0000.0,0002.02,0001.02,0000.63
2021-11-26 01:51:00,,0832.3,4.99,0.00,27.5,26.7,00.0,36.7,29.2,06.3,0000.0,0001.93,0000.99,0000.63
2021-11-26 01:52:00,,0832.3,5.01,0.00,27.5,26.6,00.0,36.7,29.2,06.4,0000.0,0002.34,0000.94,0000.62
2021-11-26 01:53:00,,0832.2,5.00,0.00,27.5,26.6,00.0,36.7,29.2,06.4,0000.0,0002.75,0000.96,0000.62
2021-11-26 01:54:00,,0832.2,4.99,0.00,27.5,26.6,00.0,36.6,29.2,06.4,0000.0,0002.76,0000.96,0000.61
2021-11-26 01:55:00,,0832.3,5.01,0.00,27.5,26.6,00.0,36.6,29.2,06.3,0000.0,0002.84,0000.97,0000.61
2021-11-26 01:56:00,,0832.2,5.00,0.00,27.5,26.6,00.0,36.6,29.2,06.3,0000.0,0002.73,0000.96,0000.62
2021-11-26 01:57:00,,0832.3,4.99,0.00,27.5,26.7,00.0,36.6,29.2,06.3,0000.0,0002.66,0000.93,0000.61
2021-11-26 01:58:00,,0832.3,5.01,0.00,27.5,26.7,00.0,36.6,29.2,06.3,0000.0,0002.70,0000.95,0000.61
2021-11-26 01:59:00,,0832.2,5.00,0.00,27.5,26.7,00.0,36.6,29.2,06.3,0000.0,0003.01,0000.98,0000.61
